Jefferson, NC

1:36 AM EDT on August 25, 2016 (GMT -0400)
Ashe County

Weather History for KGEV - April, 2013

Change the Weather History Date:

Sunday, April 14, 2013

  Actual Average Record
Temperature  
Mean Temperature 54 °F -  
Max Temperature 67 °F 63 °F 78 °F (1977)
Min Temperature 42 °F 38 °F 20 °F (1973)
Degree Days  
Heating Degree Days 10    
Growing Degree Days 4 (Base 50)    
Moisture  
Dew Point 31 °F    
Average Humidity 40    
Maximum Humidity 61    
Minimum Humidity 25    
Precipitation  
Precipitation 0.00 in - - ()
Sea Level Pressure  
Sea Level Pressure 30.08 in    
Wind  
Wind Speed 4 mph (SSE)    
Max Wind Speed 12 mph    
Max Gust Speed 22 mph    
Visibility 10 miles    
Events Rain    
Averages and records for this station are not official NWS values.
T = Trace of Precipitation, MM = Missing Value Source: NWS Daily Summary

Daily Weather History Graph

Daily Weather History Graph

Search for Another Location

Airport or City:

Trip Planner

Search our weather history database for the weather conditions in past years. The results will help you decide how hot, cold, wet, or windy it might be!

Date:

Astronomy

Apr. 14, 2013 Rise Set
Actual Time 6:53 AM EDT 7:59 PM EDT
Civil Twilight 6:26 AM EDT 8:25 PM EDT
Nautical Twilight 5:55 AM EDT 8:57 PM EDT
Astronomical Twilight 5:22 AM EDT 9:30 PM EDT
Moon 9:33 AM EDT (4/14) No Moon Set
Length of Visible Light 13h 59m
Length of Day
13h 06m
Waxing Crescent, 17% of the Moon is Illuminated
Apr 14
Waxing Crescent
Apr 18
First Quarter
Apr 25
Full
May 2
Last Quarter
May 9
New

Hourly Weather History & Observations

Time (EDT) Temp. Dew Point Humidity Pressure Visibility Wind Dir Wind Speed Gust Speed Precip Events Conditions
12:15 AM 52.7 °F 26.4 °F 36% 30.07 in 10.0 mi West 4.6 mph - N/A   Clear
12:35 AM 52.7 °F 26.1 °F 36% 30.07 in 10.0 mi WNW 8.1 mph - N/A   Clear
12:55 AM 52.7 °F 26.1 °F 36% 30.07 in 10.0 mi WNW 8.1 mph - N/A   Clear
1:15 AM 52.2 °F 26.2 °F 37% 30.07 in 10.0 mi WNW 8.1 mph - N/A   Clear
1:35 AM 51.8 °F 26.1 °F 37% 30.07 in 10.0 mi WNW 4.6 mph - N/A   Clear
1:55 AM 51.8 °F 25.7 °F 36% 30.08 in 10.0 mi WNW 3.5 mph - N/A   Clear
2:15 AM 51.1 °F 25.7 °F 37% 30.08 in 10.0 mi Calm Calm - N/A   Clear
2:35 AM 49.8 °F 26.8 °F 41% 30.08 in 10.0 mi Calm Calm - N/A   Clear
2:55 AM 50.4 °F 26.1 °F 39% 30.07 in 10.0 mi Calm Calm - N/A   Clear
3:15 AM 51.3 °F 25.3 °F 37% 30.07 in 10.0 mi NNW 3.5 mph - N/A   Clear
3:35 AM 50.2 °F 26.1 °F 39% 30.08 in 10.0 mi Calm Calm - N/A   Clear
3:55 AM 49.5 °F 26.4 °F 41% 30.08 in 10.0 mi Calm Calm - N/A   Clear
4:15 AM 49.8 °F 26.2 °F 40% 30.08 in 10.0 mi Calm Calm - N/A   Clear
4:35 AM 49.8 °F 26.6 °F 41% 30.08 in 10.0 mi Calm Calm - N/A   Clear
4:55 AM 48.9 °F 27.9 °F 44% 30.09 in 10.0 mi Calm Calm - N/A   Clear
5:15 AM 46.4 °F 28.4 °F 50% 30.09 in 10.0 mi Calm Calm - N/A   Clear
5:35 AM 47.7 °F 27.5 °F 46% 30.09 in 10.0 mi Calm Calm - N/A   Clear
5:55 AM 49.1 °F 27.9 °F 44% 30.09 in 10.0 mi Calm Calm - N/A   Clear
6:15 AM 45.3 °F 28.9 °F 53% 30.09 in 10.0 mi Calm Calm - N/A   Clear
6:35 AM 46.8 °F 28.4 °F 49% 30.09 in 10.0 mi Calm Calm - N/A   Clear
6:55 AM 44.4 °F 28.9 °F 55% 30.09 in 10.0 mi Calm Calm - N/A   Clear
7:15 AM 44.1 °F 28.8 °F 55% 30.09 in 10.0 mi Calm Calm - N/A   Clear
7:35 AM 42.4 °F 29.8 °F 61% 30.10 in 10.0 mi Calm Calm - N/A   Clear
7:55 AM 45.0 °F 29.1 °F 54% 30.11 in 10.0 mi Calm Calm - N/A   Clear
8:15 AM 46.0 °F 32.7 °F 60% 30.11 in 10.0 mi Calm Calm - N/A   Clear
8:35 AM 47.5 °F 31.6 °F 54% 30.11 in 10.0 mi Calm Calm - N/A   Clear
8:55 AM 48.4 °F 33.8 °F 57% 30.12 in 10.0 mi Calm Calm - N/A   Clear
9:15 AM 51.1 °F 33.8 °F 52% 30.12 in 10.0 mi Calm Calm - N/A   Clear
9:35 AM 51.3 °F 34.0 °F 52% 30.12 in 10.0 mi Calm Calm - N/A   Clear
9:55 AM 53.2 °F 32.5 °F 45% 30.13 in 10.0 mi ESE 4.6 mph - N/A   Clear
10:15 AM 57.6 °F 31.5 °F 37% 30.13 in 10.0 mi SSE 3.5 mph - N/A   Clear
10:35 AM 60.4 °F 31.1 °F 33% 30.13 in 10.0 mi SSE 6.9 mph - N/A   Clear
11:15 AM 64.4 °F 31.6 °F 29% 30.12 in 10.0 mi South 5.8 mph - N/A   Clear
11:35 AM 64.2 °F 29.3 °F 27% 30.12 in 10.0 mi SSE 8.1 mph 17.3 mph N/A   Clear
11:55 AM 64.2 °F 29.3 °F 27% 30.12 in 10.0 mi SSE 6.9 mph 16.1 mph N/A   Clear
12:15 PM 66.0 °F 31.3 °F 27% 30.12 in 10.0 mi SSE 8.1 mph 16.1 mph N/A   Clear
12:35 PM 65.7 °F 30.0 °F 26% 30.11 in 10.0 mi SSE 6.9 mph - N/A   Clear
12:55 PM 66.0 °F 31.1 °F 27% 30.12 in 10.0 mi SSE 6.9 mph - N/A   Clear
1:15 PM 66.2 °F 31.1 °F 27% 30.11 in 10.0 mi SSE 9.2 mph - N/A   Clear
1:35 PM 66.6 °F 31.6 °F 27% 30.11 in 10.0 mi SSE 9.2 mph - N/A   Clear
1:55 PM 66.9 °F 30.7 °F 26% 30.10 in 10.0 mi SSE 5.8 mph 16.1 mph N/A   Clear
2:15 PM 66.7 °F 30.0 °F 25% 30.09 in 10.0 mi SSE 8.1 mph 19.6 mph N/A   Clear
2:35 PM 67.3 °F 31.1 °F 26% 30.09 in 10.0 mi South 9.2 mph 16.1 mph N/A   Clear
2:55 PM 66.9 °F 30.9 °F 26% 30.08 in 10.0 mi SSE 6.9 mph - N/A   Clear
3:15 PM 67.5 °F 31.6 °F 26% 30.07 in 10.0 mi SSE 10.4 mph 17.3 mph N/A   Clear
3:35 PM 66.6 °F 31.6 °F 27% 30.07 in 10.0 mi SSE 11.5 mph 20.7 mph N/A   Clear
3:55 PM 66.2 °F 32.7 °F 29% 30.07 in 10.0 mi SSE 9.2 mph - N/A   Clear
4:15 PM 64.8 °F 31.6 °F 29% 30.07 in 10.0 mi SSE 10.4 mph 19.6 mph N/A   Clear
4:35 PM 64.6 °F 31.5 °F 29% 30.07 in 10.0 mi SE 8.1 mph - N/A   Clear
5:15 PM 63.7 °F 32.5 °F 31% 30.07 in 10.0 mi SSE 5.8 mph - N/A   Clear
5:35 PM 63.1 °F 32.4 °F 32% 30.07 in 10.0 mi South 9.2 mph 19.6 mph N/A   Clear
6:15 PM 61.9 °F 34.5 °F 36% 30.07 in 10.0 mi SSE 6.9 mph - N/A   Scattered Clouds
6:35 PM 61.2 °F 34.9 °F 37% 30.07 in 10.0 mi SSE 8.1 mph - N/A   Overcast
6:55 PM 60.6 °F 34.2 °F 37% 30.07 in 10.0 mi SSE 8.1 mph - N/A   Overcast
7:15 PM 60.1 °F 34.5 °F 38% 30.06 in 10.0 mi SSE 4.6 mph - N/A   Overcast
7:35 PM 59.5 °F 35.1 °F 40% 30.05 in 10.0 mi SSE 3.5 mph - N/A   Overcast
7:55 PM 59.2 °F 36.0 °F 42% 30.05 in 10.0 mi SSE 6.9 mph - N/A   Overcast
8:15 PM 58.8 °F 37.6 °F 45% 30.04 in 10.0 mi SSE 8.1 mph 21.9 mph N/A   Overcast
8:35 PM 57.9 °F 36.7 °F 45% 30.05 in 10.0 mi SSE 8.1 mph 19.6 mph N/A   Overcast
8:55 PM 57.6 °F 35.6 °F 44% 30.04 in 10.0 mi SE 5.8 mph - N/A   Overcast
9:15 PM 57.4 °F 34.5 °F 42% 30.04 in 10.0 mi SE 5.8 mph - N/A   Overcast
9:35 PM 57.2 °F 35.6 °F 44% 30.04 in 10.0 mi SSE 6.9 mph - N/A   Overcast
10:15 PM 56.7 °F 39.6 °F 53% 30.05 in 10.0 mi SSE 3.5 mph - N/A   Overcast
10:35 PM 56.7 °F 40.1 °F 54% 30.04 in 10.0 mi SSE 5.8 mph - N/A   Overcast
11:15 PM 55.8 °F 39.7 °F 55% 30.04 in 10.0 mi SSE 4.6 mph - N/A   Overcast
11:35 PM 55.4 °F 40.3 °F 57% 30.04 in 10.0 mi SSE 5.8 mph - N/A   Overcast
11:55 PM 54.5 °F 40.6 °F 60% 30.05 in 10.0 mi South 5.8 mph - N/A Rain Light Rain